This is the latest recevied weather packets stored in our database for station/object MM9SQL. If no packets are shown the sender has not sent any weather packets the latest 10 day(s).
| Time | Temp. | Humidity | Pressure | Rain* | Wind** | Luminosity | Snow |
|---|---|---|---|---|---|---|---|
| 1778125207 | 7.22° C | 67% | 1010.8 hPa | 0 mm | - | - | - |
| 1778123105 | 7.78° C | 65% | 1010.9 hPa | 0 mm | - | - | - |
| 1778119504 | 7.78° C | 63% | 1011.2 hPa | 0 mm | - | - | - |
| 1778106608 | 7.78° C | 64% | 1012.4 hPa | 0 mm | - | - | - |
| 1778103309 | 8.33° C | 59% | 1012.5 hPa | 0 mm | - | - | - |
| 1778103003 | 8.33° C | 59% | 1012.5 hPa | 0 mm | - | - | - |
| 1778101805 | 8.89° C | 59% | 1012.5 hPa | 0 mm | - | - | - |
| 1778100606 | 8.89° C | 60% | 1012.7 hPa | 0 mm | - | - | - |
| 1778100002 | 8.89° C | 60% | 1012.6 hPa | 0 mm | - | - | - |
| 1778096409 | 9.44° C | 61% | 1012.8 hPa | 0 mm | - | - | - |
| 1778095820 | 9.44° C | 60% | 1012.5 hPa | 0 mm | - | - | - |
| 1778089803 | 10.56° C | 59% | 1012.8 hPa | 0 mm | - | - | - |
| 1778088303 | 10.56° C | 61% | 1012.8 hPa | 0 mm | - | - | - |
| 1778087716 | 10.56° C | 60% | 1012.8 hPa | 0 mm | - | - | - |
| 1778084705 | 10.56° C | 55% | 1013.4 hPa | 0 mm | - | - | - |
| 1778082907 | 10° C | 57% | 1013.8 hPa | 0 mm | - | - | - |
| 1778080511 | 10.56° C | 54% | 1014 hPa | 0 mm | - | - | - |
| 1778080207 | 10.56° C | 56% | 1014 hPa | 0 mm | - | - | - |
| 1778079614 | 10.56° C | 56% | 1014 hPa | 0 mm | - | - | - |
| 1778077804 | 12.22° C | 51% | 1014.2 hPa | 0 mm | - | - | - |
| 1778077503 | 11.67° C | 51% | 1014.3 hPa | 0 mm | - | - | - |
| 1778077204 | 11.67° C | 55% | 1014.4 hPa | 0 mm | - | - | - |
| 1778075709 | 11.67° C | 48% | 1014.5 hPa | 0 mm | - | - | - |
| 1778073906 | 11.67° C | 53% | 1014.8 hPa | 0 mm | - | - | - |
| 1778072705 | 11.11° C | 53% | 1015.1 hPa | 0 mm | - | - | - |
* Rain latest hour (hover to see other rain measurements)
** Current wind speed in m/s (hover to see current wind gust speed)